カタログに戻る

STARLINK-31769

運用中通信VLEO
NORAD 59617·PAYLOAD·🇺🇸 United States

打ち上げ Apr 28, 2024 から Cape Canaveral Space Force Station

Loading…

次のパス (今後24時間)

TLE

最新Source: CelesTrak SupGP

元期: Sep 15, 2026, 02:23 UTC

1 59617C 24080S   26258.09979167 -.00020771  00000+0 -75214-3 0  2581
2 59617  43.0045  48.5538 0002024 269.0674 196.0927 15.27595850    13

AllMySatでSTARLINK-31769をリアルタイム追跡

Download on the App Store